STARLINK-34047, 63821

Orbit data source: Space-Track

STARLINK-34047, 63821 is a payload satellite owned by SpaceX/Seattle (US) in LEO that was launched on Sun, 04 May 2025 UTC via an FALCON 9 launch vehicle from the Air Force Eastern Test Range (AFETR). Payload-class satellites include a variety of spacecraft equipped with specific instruments for various scientific and technological missions. These include communications satellites like Starlink; space stations such as the ISS; scientific satellites like the Hubble; Earth observation satellites from companies like Planet Labs, Umbra, and HawkEye 360; GPS; miniature CubeSats for education and research; and military/defense satellites.

Loading next visibility...
Identifier
63821, 2025-092T
Orbit
LEO
Country
Flag of USUS
Related business
Manufacturer
SpaceX/Seattle
Mission
Operational Commercial Communications
Bus & Motor
STARLINK V2MO, Unknown motor
Mass
575 kg wet, ~530 kg dry
Launch date (UTC)
2025-05-04 (9 months ago)
Launch vehicle
FALCON 9
Launch site
Air Force Eastern Test Range (AFETR)
Object type
Payload
Rocket body
Debris
Shape & HBR
Box + 2 Pan, 17.7 m
Radar Cross Section
36.964 m², Large (>1 m²)

Expand to show TLE details & history
Last TLE update: 14 hours ago

TLE from 14 hours ago
0 STARLINK-34047
1 63821U 25092T   26034.62689097  .00035934  00000-0  13073-2 0  9990
2 63821  43.0044   5.0489 0002570 284.2552  75.8014 15.27622018 43450
Epoch: 2026-02-03T15:02Z
TLE epoch observation values (Epoch: 2026-02-03T15:02:43.379Z)
Latitude
-0.00005°
Longitude
5.56299°
Altitude
482.267 km
Speed
7.626 km/s
True Right ascension
00h 20m 11s
True Declination
0° 00' 00"
Sunlit
Object was in daylight at epoch
Visualization orbit readout
Latitude
Unknown
Longitude
Unknown
Altitude
Unknown
Speed
Unknown
Apparent Right ascension
Unknown
Apparent Declination
Unknown
Sunlit
N/A
Visualization observer readout
Local Sidereal Time
07:11:08
Azimuth
Unknown
Elevation
Unknown
Doppler factor
Unknown
Orbital elements
Apogee altitude
486.632 km
Perigee altitude
483.104 km
Semi-major axis
6,863.005 km
Eccentricity
0.00026
Inclination
43.0044°
RAAN
5.0489°
Arg. of periapsis
284.2552°
True anomaly
75.82995°
Mean anomaly
75.8014°
Eccentric anomaly
75.81568°
Mean motion
3.81744 °/min
Orbital period
94.3 mins
BSTAR
0.0013073
Loading maneuver chart data...
Computing Atmospheric mass density...
Loading historical data...
Loading historical data...
Loading historical data...
Loading historical data...
Loading historical data...
Loading historical data...
Loading historical data...

Documentation

Showing up to 5 results
|